DLH2280 EDDM-LFKB

Flight info

Callsign DLH2280
Flight time N/A
Altitude 37000
Route TURBU7S TURBU Y107 TOBSO DCT BAKOR DCT OSBUL DCT OLETI M858 LIGUR
Aircraft A320/M-SDE3FGHIRWY/LB1

Departure

Time 2026-05-06 16:26
Airport Munich Airport (EDDM)

Arrival

Time N/A
Airport Bastia-Poretta International airport (LFKB)
Time Latitude Longitude Altitude Speed Heading
2026-05-06 15:42 48.35210 11.79783 1471 ft 0 kts 83°
2026-05-06 15:44 48.35208 11.79779 1471 ft 0 kts 83°
2026-05-06 16:16 48.35208 11.79778 1485 ft 1 kts 83°
2026-05-06 16:17 48.35206 11.79758 1474 ft 3 kts 83°
2026-05-06 16:17 48.35204 11.79727 1480 ft 3 kts 83°
2026-05-06 16:17 48.35202 11.79698 1476 ft 3 kts 83°
2026-05-06 16:17 48.35198 11.79669 1473 ft 3 kts 62°
2026-05-06 16:18 48.35187 11.79647 1471 ft 3 kts 28°
2026-05-06 16:18 48.35170 11.79639 1471 ft 2 kts 355°
2026-05-06 16:18 48.35159 11.79641 1471 ft 3 kts 353°
2026-05-06 16:18 48.35149 11.79643 1471 ft 0 kts 353°
2026-05-06 16:20 48.35150 11.79641 1478 ft 1 kts 338°
2026-05-06 16:21 48.35148 11.79631 1478 ft 1 kts 263°
2026-05-06 16:21 48.35117 11.79634 1481 ft 6 kts 153°
2026-05-06 16:21 48.35078 11.79653 1480 ft 7 kts 169°
2026-05-06 16:21 48.35034 11.79663 1478 ft 9 kts 172°
2026-05-06 16:22 48.34966 11.79675 1480 ft 9 kts 173°
2026-05-06 16:22 48.34920 11.79682 1474 ft 0 kts 173°
2026-05-06 16:22 48.34918 11.79683 1474 ft 2 kts 173°
2026-05-06 16:23 48.34872 11.79691 1474 ft 10 kts 173°
2026-05-06 16:23 48.34812 11.79716 1478 ft 8 kts 128°
2026-05-06 16:23 48.34810 11.79805 1467 ft 11 kts 83°
2026-05-06 16:23 48.34820 11.79938 1485 ft 12 kts 83°
2026-05-06 16:24 48.34831 11.80071 1485 ft 14 kts 84°
2026-05-06 16:24 48.34795 11.80191 1485 ft 12 kts 128°
2026-05-06 16:24 48.34732 11.80243 1478 ft 10 kts 174°
2026-05-06 16:24 48.34659 11.80256 1485 ft 13 kts 173°
2026-05-06 16:25 48.34575 11.80271 1477 ft 11 kts 173°
2026-05-06 16:25 48.34501 11.80281 1478 ft 12 kts 178°
2026-05-06 16:25 48.34459 11.80191 1485 ft 14 kts 263°
2026-05-06 16:25 48.34429 11.79792 1481 ft 72 kts 263°
2026-05-06 16:26 48.34348 11.78734 1477 ft 130 kts 263°
2026-05-06 16:26 48.34226 11.77154 1524 ft 170 kts 264°
2026-05-06 16:26 48.34087 11.75449 2258 ft 163 kts 264°
2026-05-06 16:26 48.33951 11.73644 2510 ft 187 kts 261°
2026-05-06 16:27 48.33342 11.71821 2733 ft 210 kts 223°
2026-05-06 16:27 48.31994 11.70875 3113 ft 223 kts 185°
2026-05-06 16:27 48.30432 11.70822 3715 ft 227 kts 180°
2026-05-06 16:27 48.28883 11.71079 4411 ft 227 kts 162°
2026-05-06 16:28 48.27400 11.72078 4918 ft 241 kts 144°
2026-05-06 16:28 48.25989 11.73638 5307 ft 262 kts 144°
2026-05-06 16:28 48.24470 11.75223 6060 ft 267 kts 146°
2026-05-06 16:28 48.22920 11.76785 6865 ft 270 kts 147°
2026-05-06 16:29 48.21340 11.78360 7624 ft 274 kts 148°
2026-05-06 16:29 48.19669 11.79775 8401 ft 275 kts 161°
2026-05-06 16:29 48.17876 11.80755 9200 ft 277 kts 162°
2026-05-06 16:29 48.16058 11.81734 9978 ft 280 kts 163°
2026-05-06 16:30 48.14159 11.82749 10246 ft 301 kts 163°
2026-05-06 16:30 48.12813 11.83464 10372 ft 316 kts 163°
2026-05-06 16:30 48.09976 11.84972 11043 ft 328 kts 163°
2026-05-06 16:30 48.07816 11.86123 11699 ft 332 kts 163°
2026-05-06 16:31 48.05626 11.87291 12382 ft 336 kts 163°
2026-05-06 16:31 48.03412 11.88473 13058 ft 340 kts 163°
2026-05-06 16:31 48.01170 11.89671 13682 ft 344 kts 163°
2026-05-06 16:31 47.98869 11.90894 14257 ft 348 kts 164°
2026-05-06 16:32 47.96607 11.92093 14655 ft 350 kts 164°
2026-05-06 16:32 47.94321 11.93307 14759 ft 349 kts 164°
2026-05-06 16:32 47.92014 11.94384 14745 ft 343 kts 172°
2026-05-06 16:32 47.89706 11.94829 14756 ft 336 kts 182°
2026-05-06 16:33 47.87382 11.94799 14762 ft 334 kts 184°
2026-05-06 16:33 47.85054 11.94751 14756 ft 334 kts 184°
2026-05-06 16:33 47.82729 11.94707 14757 ft 335 kts 184°
2026-05-06 16:34 47.78045 11.94531 15926 ft 336 kts 187°
2026-05-06 16:34 47.75708 11.94295 16560 ft 338 kts 188°
2026-05-06 16:34 47.73364 11.94004 17173 ft 339 kts 188°